User: anonymous   Login
Location: Ciserano
(45.5833°N, 9.6000°E)
Time: 23:11:11
(UTC+00:00)
Language:

EXPRESS MD2 - Orbit

View from above orbital plane
View from above orbital plane
View from above satellite
View from above satellite

Ground track
Ground track

The orbit data is extracted from the following two-line orbital elements,

1 38745U 12044B   21059.33056035  .00008845  23727-5  22458-3 0  9995
2 38745  49.8975 172.0101 2189944 251.3453  83.8425 11.07817475335667
Epoch (UTC): 28 February 2021 07:56:00
Eccentricity: 0.2189944
inclination: 49.8975°
perigee height: 260 km
apogee height: 3983 km
right ascension of ascending node: 172.0101°
argument of perigee: 251.3453°
revolutions per day: 11.07817475
mean anomaly at epoch: 83.8425°
orbit number at epoch: 33566

The dashed part of the orbit path shows where the satellite is in the earth's shadow,  

DLR